Regional Weather Roundup
Issued by NWS

Home | Current Version | Previous Version | Graphics & Text | Print | Product List | Glossary On
Versions: 1 2 3 4 5 6 7 8 9 10 11 12 13 14 15 16 17 18 19 20 21 22 23 24 25 26 27 28 29 30 31 32 33 34 35 36 37 38 39 40 41 42 43 44 45 46 47 48 49 50
000
ASUS43 KIND 210809
RWRIN

WEATHER ROUNDUP FOR INDIANA
NATIONAL WEATHER SERVICE INDIANAPOLIS IN
300 AM EST SUN JAN 21 2018

NOTE: "FAIR" INDICATES FEW OR NO CLOUDS BELOW 12,000 FEET WITH NO
SIGNIFICANT WEATHER AND/OR OBSTRUCTIONS TO VISIBILITY.

* - STATION DOES NOT REPORT WEATHER SUCH AS PRECIPITATION OR FOG.

+ - STATION NOT QUALITY CONTROLLED BY THE NATIONAL WEATHER SERVICE.
    USE DATA WITH CAUTION...ESPECIALLY DEWPOINT AND RELATIVE
    HUMIDITY OBSERVATIONS.

INZ001>003-010>013-019-020-210900-
NORTHWEST INDIANA

CITY           SKY/WX    TMP DP  RH WIND       PRES   REMARKS
GARY /AIRPORT/ CLOUDY    41  37  84 CALM      30.02R
KNOX *+        CLOUDY    36  34  93 CALM      30.02S
LA PORTE +     CLOUDY    34  33  95 CALM      30.03R
MICHIGAN CITY+ CLOUDY    37  34  87 S3        30.03R
MONTICELLO +   FOG       38  37  95 S7        30.03R VSB 1/2 WCI  33
RENSSELAER +   CLOUDY    37  36  93 SE5       30.02R FOG     WCI  34
VALPARAISO     CLOUDY    38  35  89 S5        30.02S WCI  34

$$

LMZ046-743>745-210900-
SOUTHERN LAKE MICHIGAN

STATION/POSITION TIME  TEMP    WIND        PRES    WAVE
                       AIR SEA DIR/SP/G            HT
                 (UTC) (F)     (DEG/KT/KT) (MB)    (FT)
BURNS HARBOR     0740   38     200/  9/ 11 1016.9S
MICHIGAN CITY    0740   39     170/ 11/ 13   N/A

$$

INZ004-005-014>016-021>024-210900-
NORTH CENTRAL INDIANA

CITY           SKY/WX    TMP DP  RH WIND       PRES   REMARKS
GOSHEN         CLOUDY    37  35  92 S6        30.03R FOG     WCI  32
LOGANSPORT +   FOG       36  34  93 S6        30.05S VSB 1/4 WCI  31
PERU/GRISSOM   FOG       39  39 100 SW5       30.04R VSB 5/8 WCI  35
ROCHESTER +    FOG       39  39 100 S5        30.04S VSB 1/4 WCI  36
SOUTH BEND     CLOUDY    36  33  89 S5        30.03S WCI  32
WARSAW +       CLOUDY    37  37 100 CALM      30.04S FOG

$$

INZ006>009-017-018-025>027-210900-
NORTHEAST INDIANA

CITY           SKY/WX    TMP DP  RH WIND       PRES   REMARKS
AUBURN +       FOG      N/A N/A N/A CALM      30.05R VSB 1/2
FORT WAYNE     DRZL/FOG  37  37 100 SW6       30.05S VSB 3/4 WCI  32
HUNTINGTON +   FOG       37  37  97 SW3       30.05R VSB 1
KENDALLVILLE + FOG       37  37 100 SW6       30.04R VSB 1/4 WCI  32

$$

INZ028-029-035-036-043>045-051>053-210900-
WEST CENTRAL INDIANA

CITY           SKY/WX    TMP DP  RH WIND       PRES   REMARKS
CRAWFORDSVL +  FOG       36  36 100 MISG      30.03F VSB 1
GREENCASTLE +  CLOUDY    39  37  93 CALM      30.05R FOG
LAFAYETTE      FOG       39  39 100 CALM      30.03S VSB 1/4
TERRE HAUTE    CLOUDY    39  37  92 SE5       30.04S FOG     WCI  36

$$

INZ030>032-037>040-046>048-054>057-064-065-210900-
CENTRAL INDIANA

CITY           SKY/WX    TMP DP  RH WIND       PRES   REMARKS
FRANKFORT +    FOG       40  40  97 CALM      30.06S VSB 1/2
GREENWOOD *+   CLOUDY    41  40  97 SE3       30.06S
INDIANAPOLIS   FOG       39  39 100 SE6       30.06S VSB 1/4 WCI  35
-EAGLE CREEK   FOG       39  38  96 CALM      30.05S VSB 1/4
MARION +       CLOUDY    38  37  99 CALM      30.06R FOG
MT COMFORT *+  CLOUDY    37  37 100 S3        30.06S VSB 1/2
SHELBYVILLE    CLOUDY    42  40  92 S8        30.06S
ZIONSVILLE +   FOG       38  38 100 S3        30.06R VSB 1/4

$$

INZ033-034-041-042-049-050-058-059-210900-
EAST CENTRAL INDIANA

CITY           SKY/WX    TMP DP  RH WIND       PRES   REMARKS
MUNCIE         CLOUDY    42  40  92 SW7       30.06R FOG
RICHMOND +     FOG       36  36 100 S9        30.08S VSB 1/2 WCI  29

$$

INZ060-061-067>069-081>083-085>088-210900-
SOUTHWEST INDIANA

CITY           SKY/WX    TMP DP  RH WIND       PRES   REMARKS
EVANSVILLE     FAIR      44  42  93 S6        30.06S
HUNTINGBURG +  CLOUDY    46  41  82 S8        30.07S
WASHINGTON +   CLOUDY    38  36  94 CALM      30.05S

$$

INZ062-063-066-070>080-084-089>092-210900-
SOUTH CENTRAL AND SOUTHEAST INDIANA

CITY           SKY/WX    TMP DP  RH WIND       PRES   REMARKS
BATESVILLE *+    N/A    N/A N/A N/A MISG        N/A
BEDFORD +      CLOUDY    48  43  81 S6        30.06S
BLOOMINGTON    CLOUDY    48  43  82 S9        30.05S
FRENCH LICK *+ CLOUDY    48  41  76 S6        30.07S
MADISON *+     CLOUDY    46  37  71 S6        30.10S
NORTH VERNON + CLOUDY    43  39  87 S7        30.08F
SEYMOUR +      MOCLDY    41  39  93 S3        30.08S

$$





USA.gov is the U.S. government's official web portal to all federal, state and local government web resources and services.